Time,TemperatureF,DewpointF,PressureIn,WindDirection,WindDirectionDegrees,WindSpeedMPH,WindSpeedGustMPH,Humidity,HourlyPrecipIn,Conditions,Clouds,dailyrainin,SoftwareType,DateUTC
2013-03-09 00:04:00,30.9,26.1,30.29,SE,126,5.0,7.0,82,0.00,,,0.00,Wunderground v.1.15,2013-03-09 06:04:00,
2013-03-09 00:10:00,31.3,26.4,30.29,SE,124,6.0,6.0,82,0.00,,,0.00,Wunderground v.1.15,2013-03-09 06:10:00,
2013-03-09 00:16:00,31.5,26.3,30.29,ESE,116,5.0,6.0,81,0.00,,,0.00,Wunderground v.1.15,2013-03-09 06:16:00,
2013-03-09 00:22:00,31.6,26.4,30.28,East,92,5.0,6.0,81,0.00,,,0.00,Wunderground v.1.15,2013-03-09 06:22:00,
2013-03-09 00:28:00,31.6,26.4,30.28,ESE,107,5.0,6.0,81,0.00,,,0.00,Wunderground v.1.15,2013-03-09 06:28:00,
2013-03-09 00:34:00,31.7,26.8,30.29,ESE,119,4.0,5.0,82,0.00,,,0.00,Wunderground v.1.15,2013-03-09 06:34:00,
2013-03-09 00:40:00,31.7,26.8,30.29,SE,130,4.0,4.0,82,0.00,,,0.00,Wunderground v.1.15,2013-03-09 06:40:00,
2013-03-09 00:46:00,31.7,26.8,30.28,SE,126,3.0,4.0,82,0.00,,,0.00,Wunderground v.1.15,2013-03-09 06:46:00,
2013-03-09 00:52:00,32.0,27.1,30.28,SE,128,4.0,8.0,82,0.00,,,0.00,Wunderground v.1.15,2013-03-09 06:52:00,
2013-03-09 00:58:00,32.4,27.2,30.28,SE,128,5.0,8.0,81,0.00,,,0.00,Wunderground v.1.15,2013-03-09 06:58:00,
2013-03-09 01:04:00,32.5,27.3,30.28,SE,144,5.0,7.0,81,0.00,,,0.00,Wunderground v.1.15,2013-03-09 07:04:00,
2013-03-09 01:10:00,32.5,27.3,30.27,East,88,5.0,7.0,81,0.00,,,0.00,Wunderground v.1.15,2013-03-09 07:10:00,
2013-03-09 01:16:00,32.3,27.1,30.26,SE,131,6.0,10.0,81,0.00,,,0.00,Wunderground v.1.15,2013-03-09 07:16:00,
2013-03-09 01:22:00,32.3,27.1,30.26,ESE,121,6.0,8.0,81,0.00,,,0.00,Wunderground v.1.15,2013-03-09 07:22:00,
2013-03-09 01:28:00,32.3,27.1,30.26,ESE,109,6.0,8.0,81,0.00,,,0.00,Wunderground v.1.15,2013-03-09 07:28:00,
2013-03-09 01:34:00,32.2,27.0,30.26,ESE,112,5.0,6.0,81,0.00,,,0.00,Wunderground v.1.15,2013-03-09 07:34:00,
2013-03-09 01:40:00,32.2,27.0,30.26,ESE,111,5.0,5.0,81,0.00,,,0.00,Wunderground v.1.15,2013-03-09 07:40:00,
2013-03-09 01:46:00,32.1,27.2,30.25,ESE,123,6.0,9.0,82,0.00,,,0.00,Wunderground v.1.15,2013-03-09 07:46:00,
2013-03-09 01:52:00,32.1,27.2,30.25,SE,124,5.0,6.0,82,0.00,,,0.00,Wunderground v.1.15,2013-03-09 07:52:00,
2013-03-09 01:58:00,32.0,27.1,30.25,SE,139,4.0,6.0,82,0.00,,,0.00,Wunderground v.1.15,2013-03-09 07:58:00,
2013-03-09 02:04:00,32.0,27.4,30.25,ESE,115,3.0,4.0,83,0.00,,,0.00,Wunderground v.1.15,2013-03-09 08:04:00,
2013-03-09 02:10:00,32.2,27.6,30.24,ESE,118,3.0,7.0,83,0.00,,,0.00,Wunderground v.1.15,2013-03-09 08:10:00,
2013-03-09 02:16:00,32.3,27.4,30.24,ESE,119,4.0,7.0,82,0.00,,,0.00,Wunderground v.1.15,2013-03-09 08:16:00,
2013-03-09 02:22:00,32.4,27.5,30.24,SE,132,4.0,4.0,82,0.00,,,0.00,Wunderground v.1.15,2013-03-09 08:22:00,
2013-03-09 02:28:00,32.4,27.5,30.24,SE,129,4.0,5.0,82,0.00,,,0.00,Wunderground v.1.15,2013-03-09 08:28:00,
2013-03-09 02:34:00,32.4,27.8,30.23,ESE,113,4.0,5.0,83,0.00,,,0.00,Wunderground v.1.15,2013-03-09 08:34:00,
2013-03-09 02:40:00,32.4,27.8,30.23,SE,145,4.0,7.0,83,0.00,,,0.00,Wunderground v.1.15,2013-03-09 08:40:00,
2013-03-09 02:46:00,32.4,27.8,30.23,SSE,148,4.0,7.0,83,0.00,,,0.00,Wunderground v.1.15,2013-03-09 08:46:00,
2013-03-09 02:52:00,32.4,27.8,30.22,ESE,115,4.0,7.0,83,0.00,,,0.00,Wunderground v.1.15,2013-03-09 08:52:00,
2013-03-09 02:58:00,32.3,27.7,30.22,ESE,115,5.0,7.0,83,0.00,,,0.00,Wunderground v.1.15,2013-03-09 08:58:00,
2013-03-09 03:04:00,32.2,27.9,30.22,ESE,103,4.0,5.0,84,0.00,,,0.00,Wunderground v.1.15,2013-03-09 09:04:00,
2013-03-09 03:10:00,32.1,27.8,30.22,ESE,118,4.0,8.0,84,0.00,,,0.00,Wunderground v.1.15,2013-03-09 09:10:00,
2013-03-09 03:16:00,32.1,27.8,30.22,ESE,117,3.0,7.0,84,0.00,,,0.00,Wunderground v.1.15,2013-03-09 09:16:00,
2013-03-09 03:22:00,32.0,27.7,30.21,ESE,121,4.0,4.0,84,0.00,,,0.00,Wunderground v.1.15,2013-03-09 09:22:00,
2013-03-09 03:28:00,32.0,28.0,30.21,ESE,103,4.0,4.0,85,0.00,,,0.00,Wunderground v.1.15,2013-03-09 09:28:00,
2013-03-09 03:34:00,32.0,28.0,30.20,ESE,112,4.0,5.0,85,0.00,,,0.00,Wunderground v.1.15,2013-03-09 09:34:00,
2013-03-09 03:40:00,32.1,28.1,30.20,ESE,119,5.0,5.0,85,0.00,,,0.00,Wunderground v.1.15,2013-03-09 09:40:00,
2013-03-09 03:46:00,32.2,28.2,30.20,ESE,122,5.0,10.0,85,0.00,,,0.00,Wunderground v.1.15,2013-03-09 09:46:00,
2013-03-09 03:52:00,32.3,28.0,30.20,ESE,115,6.0,6.0,84,0.00,,,0.00,Wunderground v.1.15,2013-03-09 09:52:00,
2013-03-09 03:58:00,32.4,28.1,30.21,East,92,4.0,6.0,84,0.00,,,0.00,Wunderground v.1.15,2013-03-09 09:58:00,
2013-03-09 04:04:00,32.4,28.1,30.20,ESE,111,4.0,9.0,84,0.00,,,0.00,Wunderground v.1.15,2013-03-09 10:04:00,
2013-03-09 04:10:00,32.6,28.3,30.21,SE,140,5.0,9.0,84,0.00,,,0.00,Wunderground v.1.15,2013-03-09 10:10:00,
2013-03-09 04:16:00,32.7,28.4,30.21,ESE,103,4.0,7.0,84,0.00,,,0.00,Wunderground v.1.15,2013-03-09 10:16:00,
2013-03-09 04:22:00,32.8,28.5,30.21,SSE,147,4.0,4.0,84,0.00,,,0.00,Wunderground v.1.15,2013-03-09 10:22:00,
2013-03-09 04:28:00,32.8,28.8,30.21,SE,136,3.0,5.0,85,0.00,,,0.00,Wunderground v.1.15,2013-03-09 10:28:00,
2013-03-09 04:34:00,32.8,28.8,30.22,SE,137,2.0,2.0,85,0.00,,,0.00,Wunderground v.1.15,2013-03-09 10:34:00,
2013-03-09 04:40:00,32.9,28.9,30.22,SE,137,0.0,2.0,85,0.00,,,0.00,Wunderground v.1.15,2013-03-09 10:40:00,
2013-03-09 04:46:00,32.9,29.2,30.22,SE,137,1.0,1.0,86,0.00,,,0.00,Wunderground v.1.15,2013-03-09 10:46:00,
2013-03-09 04:52:00,33.1,29.4,30.23,SE,141,2.0,2.0,86,0.00,,,0.00,Wunderground v.1.15,2013-03-09 10:52:00,
2013-03-09 04:58:00,33.3,29.6,30.23,ESE,118,2.0,4.0,86,0.00,,,0.00,Wunderground v.1.15,2013-03-09 10:58:00,
2013-03-09 05:04:00,33.5,29.8,30.23,ESE,118,3.0,3.0,86,0.00,,,0.00,Wunderground v.1.15,2013-03-09 11:04:00,
2013-03-09 05:10:00,33.7,29.7,30.22,SE,130,3.0,3.0,85,0.00,,,0.00,Wunderground v.1.15,2013-03-09 11:10:00,
2013-03-09 05:16:00,33.9,29.9,30.23,SSE,148,3.0,4.0,85,0.00,,,0.00,Wunderground v.1.15,2013-03-09 11:16:00,
2013-03-09 05:22:00,33.8,29.8,30.23,SE,146,3.0,3.0,85,0.00,,,0.01,Wunderground v.1.15,2013-03-09 11:22:00,
2013-03-09 05:28:00,33.7,30.0,30.23,SSE,154,3.0,6.0,86,0.00,,,0.01,Wunderground v.1.15,2013-03-09 11:28:00,
2013-03-09 05:34:00,33.5,30.0,30.22,SE,132,4.0,5.0,87,0.00,,,0.01,Wunderground v.1.15,2013-03-09 11:34:00,
2013-03-09 05:40:00,33.4,30.2,30.21,SE,136,4.0,4.0,88,0.00,,,0.02,Wunderground v.1.15,2013-03-09 11:40:00,
2013-03-09 05:46:00,33.2,30.0,30.21,SE,140,4.0,6.0,88,0.07,,,0.03,Wunderground v.1.15,2013-03-09 11:46:00,
2013-03-09 05:52:00,33.0,30.1,30.20,SE,136,4.0,4.0,89,0.07,,,0.03,Wunderground v.1.15,2013-03-09 11:52:00,
2013-03-09 05:58:00,32.9,30.0,30.20,SSE,161,4.0,4.0,89,0.14,,,0.05,Wunderground v.1.15,2013-03-09 11:58:00,
2013-03-09 06:04:00,33.0,30.4,30.20,SE,135,5.0,6.0,90,0.12,,,0.06,Wunderground v.1.15,2013-03-09 12:04:00,
2013-03-09 06:10:00,33.1,30.5,30.20,SE,132,5.0,9.0,90,0.13,,,0.07,Wunderground v.1.15,2013-03-09 12:10:00,
2013-03-09 06:16:00,33.3,31.0,30.20,SSE,154,5.0,9.0,91,0.07,,,0.08,Wunderground v.1.15,2013-03-09 12:16:00,
2013-03-09 06:22:00,33.4,30.8,30.19,ESE,121,5.0,10.0,90,0.07,,,0.08,Wunderground v.1.15,2013-03-09 12:22:00,
2013-03-09 06:28:00,33.6,31.0,30.18,ESE,112,6.0,10.0,90,0.04,,,0.08,Wunderground v.1.15,2013-03-09 12:28:00,
2013-03-09 06:34:00,33.7,31.1,30.18,ESE,121,7.0,7.0,90,0.00,,,0.08,Wunderground v.1.15,2013-03-09 12:34:00,
2013-03-09 06:40:00,33.9,31.0,30.18,SE,132,7.0,7.0,89,0.00,,,0.08,Wunderground v.1.15,2013-03-09 12:40:00,
2013-03-09 06:46:00,34.1,31.2,30.17,ESE,117,7.0,8.0,89,0.00,,,0.08,Wunderground v.1.15,2013-03-09 12:46:00,
2013-03-09 06:52:00,34.3,31.4,30.18,SSE,150,6.0,7.0,89,0.00,,,0.08,Wunderground v.1.15,2013-03-09 12:52:00,
2013-03-09 06:58:00,34.2,31.0,30.19,SE,145,5.0,7.0,88,0.00,,,0.08,Wunderground v.1.15,2013-03-09 12:58:00,
2013-03-09 07:04:00,34.1,31.2,30.19,SSE,147,4.0,6.0,89,0.00,,,0.08,Wunderground v.1.15,2013-03-09 13:04:00,
2013-03-09 07:10:00,34.2,31.3,30.19,SSE,155,4.0,4.0,89,0.00,,,0.08,Wunderground v.1.15,2013-03-09 13:10:00,
2013-03-09 07:16:00,34.2,31.0,30.19,SE,138,4.0,4.0,88,0.00,,,0.08,Wunderground v.1.15,2013-03-09 13:16:00,
2013-03-09 07:22:00,34.2,31.0,30.19,SE,135,4.0,6.0,88,0.00,,,0.08,Wunderground v.1.15,2013-03-09 13:22:00,
2013-03-09 07:28:00,34.2,31.0,30.19,SE,141,5.0,6.0,88,0.00,,,0.08,Wunderground v.1.15,2013-03-09 13:28:00,
2013-03-09 07:34:00,34.3,30.8,30.19,SE,138,5.0,7.0,87,0.00,,,0.08,Wunderground v.1.15,2013-03-09 13:34:00,
2013-03-09 07:40:00,34.3,30.8,30.19,SE,132,5.0,5.0,87,0.00,,,0.08,Wunderground v.1.15,2013-03-09 13:40:00,
2013-03-09 07:46:00,34.2,30.7,30.18,SE,125,5.0,6.0,87,0.00,,,0.08,Wunderground v.1.15,2013-03-09 13:46:00,
2013-03-09 07:52:00,34.1,30.6,30.18,SE,132,6.0,8.0,87,0.00,,,0.08,Wunderground v.1.15,2013-03-09 13:52:00,
2013-03-09 07:58:00,34.0,30.8,30.18,SE,142,6.0,9.0,88,0.00,,,0.08,Wunderground v.1.15,2013-03-09 13:58:00,
2013-03-09 08:04:00,34.1,30.9,30.18,SE,144,5.0,6.0,88,0.00,,,0.08,Wunderground v.1.15,2013-03-09 14:04:00,
2013-03-09 08:10:00,34.2,30.7,30.18,ESE,107,5.0,8.0,87,0.00,,,0.08,Wunderground v.1.15,2013-03-09 14:10:00,
2013-03-09 08:16:00,34.5,30.7,30.17,SSE,155,6.0,9.0,86,0.00,,,0.08,Wunderground v.1.15,2013-03-09 14:16:00,
2013-03-09 08:22:00,34.7,30.9,30.17,ESE,116,6.0,7.0,86,0.00,,,0.08,Wunderground v.1.15,2013-03-09 14:22:00,
2013-03-09 08:28:00,34.9,30.8,30.16,SE,146,6.0,8.0,85,0.00,,,0.08,Wunderground v.1.15,2013-03-09 14:28:00,
2013-03-09 08:34:00,35.1,31.0,30.16,SE,142,6.0,6.0,85,0.00,,,0.08,Wunderground v.1.15,2013-03-09 14:34:00,
2013-03-09 08:40:00,35.3,30.9,30.16,ESE,115,7.0,10.0,84,0.00,,,0.08,Wunderground v.1.15,2013-03-09 14:40:00,
2013-03-09 08:46:00,35.7,31.0,30.16,SE,128,7.0,7.0,83,0.00,,,0.08,Wunderground v.1.15,2013-03-09 14:46:00,
2013-03-09 08:52:00,35.9,31.2,30.15,SE,128,6.0,7.0,83,0.00,,,0.08,Wunderground v.1.15,2013-03-09 14:52:00,
2013-03-09 08:58:00,36.0,31.0,30.15,SE,143,6.0,8.0,82,0.00,,,0.08,Wunderground v.1.15,2013-03-09 14:58:00,
2013-03-09 09:04:00,36.1,31.1,30.16,SSE,148,5.0,8.0,82,0.00,,,0.08,Wunderground v.1.15,2013-03-09 15:04:00,
2013-03-09 09:10:00,36.3,31.0,30.15,SE,144,5.0,8.0,81,0.00,,,0.08,Wunderground v.1.15,2013-03-09 15:10:00,
2013-03-09 09:16:00,36.5,31.2,30.15,SSE,149,5.0,9.0,81,0.00,,,0.08,Wunderground v.1.15,2013-03-09 15:16:00,
2013-03-09 09:22:00,36.6,31.3,30.14,SE,130,5.0,6.0,81,0.00,,,0.08,Wunderground v.1.15,2013-03-09 15:22:00,
2013-03-09 09:28:00,36.7,31.4,30.14,SSE,150,5.0,6.0,81,0.00,,,0.08,Wunderground v.1.15,2013-03-09 15:28:00,
2013-03-09 09:34:00,36.9,31.3,30.14,SE,144,5.0,7.0,80,0.00,,,0.08,Wunderground v.1.15,2013-03-09 15:34:00,
2013-03-09 09:40:00,37.0,31.4,30.13,East,96,5.0,9.0,80,0.00,,,0.08,Wunderground v.1.15,2013-03-09 15:40:00,
2013-03-09 09:46:00,37.0,31.4,30.13,SSE,148,6.0,6.0,80,0.00,,,0.08,Wunderground v.1.15,2013-03-09 15:46:00,
2013-03-09 09:52:00,37.0,31.1,30.12,South,169,5.0,5.0,79,0.00,,,0.08,Wunderground v.1.15,2013-03-09 15:52:00,
2013-03-09 09:58:00,36.9,31.0,30.12,South,169,6.0,6.0,79,0.00,,,0.08,Wunderground v.1.15,2013-03-09 15:58:00,
2013-03-09 10:04:00,37.0,31.1,30.12,SE,146,5.0,5.0,79,0.00,,,0.08,Wunderground v.1.15,2013-03-09 16:04:00,
2013-03-09 10:10:00,37.0,31.1,30.11,South,189,5.0,11.0,79,0.00,,,0.08,Wunderground v.1.15,2013-03-09 16:10:00,
2013-03-09 10:16:00,37.0,30.8,30.11,South,177,6.0,8.0,78,0.00,,,0.08,Wunderground v.1.15,2013-03-09 16:16:00,
2013-03-09 10:22:00,37.1,30.9,30.11,South,171,6.0,6.0,78,0.00,,,0.08,Wunderground v.1.15,2013-03-09 16:22:00,
2013-03-09 10:28:00,37.3,31.1,30.11,SSE,163,6.0,7.0,78,0.00,,,0.08,Wunderground v.1.15,2013-03-09 16:28:00,
2013-03-09 10:34:00,37.2,31.0,30.10,SSE,158,6.0,7.0,78,0.00,,,0.08,Wunderground v.1.15,2013-03-09 16:34:00,
2013-03-09 10:40:00,37.0,31.1,30.10,SSE,159,7.0,7.0,79,0.00,,,0.08,Wunderground v.1.15,2013-03-09 16:40:00,
2013-03-09 10:46:00,36.9,31.0,30.10,South,169,7.0,11.0,79,0.00,,,0.08,Wunderground v.1.15,2013-03-09 16:46:00,
2013-03-09 10:52:00,36.7,30.8,30.09,South,183,6.0,6.0,79,0.00,,,0.08,Wunderground v.1.15,2013-03-09 16:52:00,
2013-03-09 10:58:00,36.7,31.1,30.09,South,190,6.0,7.0,80,0.00,,,0.08,Wunderground v.1.15,2013-03-09 16:58:00,
2013-03-09 11:04:00,36.7,31.1,30.09,SSE,164,7.0,11.0,80,0.00,,,0.08,Wunderground v.1.15,2013-03-09 17:04:00,
2013-03-09 11:10:00,36.7,31.4,30.08,SSW,213,6.0,7.0,81,0.00,,,0.08,Wunderground v.1.15,2013-03-09 17:10:00,
2013-03-09 11:16:00,36.6,31.3,30.08,South,169,6.0,8.0,81,0.00,,,0.08,Wunderground v.1.15,2013-03-09 17:16:00,
2013-03-09 11:22:00,36.5,31.5,30.08,South,185,6.0,8.0,82,0.00,,,0.08,Wunderground v.1.15,2013-03-09 17:22:00,
2013-03-09 11:28:00,36.7,31.7,30.07,SE,145,6.0,11.0,82,0.00,,,0.08,Wunderground v.1.15,2013-03-09 17:28:00,
2013-03-09 11:34:00,36.8,31.8,30.06,SSE,149,7.0,7.0,82,0.00,,,0.09,Wunderground v.1.15,2013-03-09 17:34:00,
2013-03-09 11:40:00,36.9,31.9,30.06,SE,145,6.0,7.0,82,0.00,,,0.09,Wunderground v.1.15,2013-03-09 17:40:00,
2013-03-09 11:46:00,37.1,31.8,30.06,ESE,113,6.0,7.0,81,0.00,,,0.09,Wunderground v.1.15,2013-03-09 17:46:00,
2013-03-09 11:52:00,37.2,31.6,30.06,South,169,6.0,7.0,80,0.00,,,0.09,Wunderground v.1.15,2013-03-09 17:52:00,
2013-03-09 11:58:00,37.4,31.8,30.05,SE,132,7.0,10.0,80,0.00,,,0.09,Wunderground v.1.15,2013-03-09 17:58:00,
2013-03-09 12:04:00,37.6,32.0,30.05,SSE,161,6.0,6.0,80,0.00,,,0.09,Wunderground v.1.15,2013-03-09 18:04:00,
2013-03-09 12:10:00,37.6,32.0,30.05,SSE,165,6.0,7.0,80,0.00,,,0.09,Wunderground v.1.15,2013-03-09 18:10:00,
2013-03-09 12:16:00,37.9,32.0,30.05,SE,127,7.0,7.0,79,0.00,,,0.09,Wunderground v.1.15,2013-03-09 18:16:00,
2013-03-09 12:22:00,38.2,32.3,30.05,SSE,166,6.0,6.0,79,0.00,,,0.09,Wunderground v.1.15,2013-03-09 18:22:00,
2013-03-09 12:28:00,38.3,32.4,30.04,South,177,5.0,10.0,79,0.00,,,0.09,Wunderground v.1.15,2013-03-09 18:28:00,
2013-03-09 12:34:00,38.4,32.5,30.04,SSE,159,5.0,5.0,79,0.00,,,0.09,Wunderground v.1.15,2013-03-09 18:34:00,
2013-03-09 12:40:00,38.5,32.2,30.03,SSE,159,5.0,5.0,78,0.00,,,0.09,Wunderground v.1.15,2013-03-09 18:40:00,
2013-03-09 12:46:00,38.6,32.3,30.03,South,185,5.0,7.0,78,0.00,,,0.09,Wunderground v.1.15,2013-03-09 18:46:00,
2013-03-09 12:52:00,38.6,32.3,30.02,SSE,160,4.0,4.0,78,0.00,,,0.09,Wunderground v.1.15,2013-03-09 18:52:00,
2013-03-09 12:58:00,38.7,32.4,30.02,South,180,5.0,5.0,78,0.00,,,0.09,Wunderground v.1.15,2013-03-09 18:58:00,
2013-03-09 13:04:00,38.7,32.7,30.02,SE,138,5.0,7.0,79,0.00,,,0.09,Wunderground v.1.15,2013-03-09 19:04:00,
2013-03-09 13:10:00,38.8,32.5,30.01,ESE,113,5.0,7.0,78,0.00,,,0.09,Wunderground v.1.15,2013-03-09 19:10:00,
2013-03-09 13:16:00,38.9,32.6,30.00,SE,124,5.0,8.0,78,0.00,,,0.09,Wunderground v.1.15,2013-03-09 19:16:00,
2013-03-09 13:22:00,38.9,32.6,30.00,SSE,166,5.0,5.0,78,0.00,,,0.09,Wunderground v.1.15,2013-03-09 19:22:00,
2013-03-09 13:28:00,38.8,32.8,30.00,SSW,192,4.0,6.0,79,0.00,,,0.09,Wunderground v.1.15,2013-03-09 19:28:00,
2013-03-09 13:34:00,38.8,32.8,29.99,SE,144,4.0,5.0,79,0.00,,,0.09,Wunderground v.1.15,2013-03-09 19:34:00,
2013-03-09 13:40:00,39.3,33.0,29.99,SSE,162,5.0,5.0,78,0.00,,,0.09,Wunderground v.1.15,2013-03-09 19:40:00,
2013-03-09 13:46:00,39.4,33.1,29.99,South,181,5.0,6.0,78,0.00,,,0.09,Wunderground v.1.15,2013-03-09 19:46:00,
2013-03-09 13:52:00,39.3,33.0,29.99,South,171,5.0,5.0,78,0.00,,,0.09,Wunderground v.1.15,2013-03-09 19:52:00,
2013-03-09 13:58:00,39.4,33.4,29.99,South,173,5.0,7.0,79,0.00,,,0.09,Wunderground v.1.15,2013-03-09 19:58:00,
2013-03-09 14:04:00,39.4,33.4,29.98,SSE,156,5.0,5.0,79,0.00,,,0.09,Wunderground v.1.15,2013-03-09 20:04:00,
2013-03-09 14:10:00,39.5,33.5,29.97,South,182,4.0,5.0,79,0.00,,,0.09,Wunderground v.1.15,2013-03-09 20:10:00,
2013-03-09 14:16:00,39.6,33.6,29.97,SE,136,4.0,6.0,79,0.00,,,0.09,Wunderground v.1.15,2013-03-09 20:16:00,
2013-03-09 14:22:00,39.8,33.5,29.97,SSE,165,4.0,4.0,78,0.00,,,0.09,Wunderground v.1.15,2013-03-09 20:22:00,
2013-03-09 14:28:00,39.9,33.6,29.97,SSE,168,5.0,5.0,78,0.00,,,0.09,Wunderground v.1.15,2013-03-09 20:28:00,
2013-03-09 14:34:00,39.9,33.6,29.96,SSE,159,5.0,5.0,78,0.00,,,0.09,Wunderground v.1.15,2013-03-09 20:34:00,
2013-03-09 14:40:00,39.7,33.7,29.96,SE,126,5.0,5.0,79,0.00,,,0.09,Wunderground v.1.15,2013-03-09 20:40:00,
2013-03-09 14:46:00,39.5,33.5,29.96,SE,142,4.0,7.0,79,0.00,,,0.09,Wunderground v.1.15,2013-03-09 20:46:00,
2013-03-09 14:52:00,39.5,33.8,29.96,SSE,148,5.0,6.0,80,0.00,,,0.09,Wunderground v.1.15,2013-03-09 20:52:00,
2013-03-09 14:58:00,39.3,33.6,29.96,South,172,5.0,6.0,80,0.00,,,0.09,Wunderground v.1.15,2013-03-09 20:58:00,
2013-03-09 15:04:00,39.3,33.6,29.95,ESE,117,5.0,5.0,80,0.00,,,0.09,Wunderground v.1.15,2013-03-09 21:04:00,
2013-03-09 15:10:00,39.2,33.9,29.95,SSE,150,5.0,5.0,81,0.00,,,0.09,Wunderground v.1.15,2013-03-09 21:10:00,
2013-03-09 15:16:00,39.2,33.9,29.95,SE,139,4.0,5.0,81,0.00,,,0.09,Wunderground v.1.15,2013-03-09 21:16:00,
2013-03-09 15:22:00,39.2,33.9,29.94,SE,136,5.0,5.0,81,0.00,,,0.09,Wunderground v.1.15,2013-03-09 21:22:00,
2013-03-09 15:28:00,39.2,33.9,29.94,SSE,153,4.0,5.0,81,0.00,,,0.09,Wunderground v.1.15,2013-03-09 21:28:00,
2013-03-09 15:34:00,39.2,34.2,29.93,SSE,147,5.0,6.0,82,0.00,,,0.09,Wunderground v.1.15,2013-03-09 21:34:00,
2013-03-09 15:40:00,39.3,34.3,29.93,SSE,151,5.0,7.0,82,0.00,,,0.09,Wunderground v.1.15,2013-03-09 21:40:00,
2013-03-09 15:46:00,39.3,34.0,29.93,ESE,120,5.0,5.0,81,0.00,,,0.09,Wunderground v.1.15,2013-03-09 21:46:00,
2013-03-09 15:52:00,39.0,34.0,29.92,ESE,120,4.0,4.0,82,0.00,,,0.09,Wunderground v.1.15,2013-03-09 21:52:00,
2013-03-09 15:58:00,39.0,34.3,29.92,ESE,109,5.0,7.0,83,0.00,,,0.09,Wunderground v.1.15,2013-03-09 21:58:00,
2013-03-09 16:04:00,39.1,34.1,29.91,SE,127,6.0,6.0,82,0.00,,,0.09,Wunderground v.1.15,2013-03-09 22:04:00,
2013-03-09 16:10:00,39.1,34.4,29.90,ESE,119,6.0,6.0,83,0.00,,,0.09,Wunderground v.1.15,2013-03-09 22:10:00,
2013-03-09 16:16:00,39.0,34.3,29.90,ESE,120,7.0,10.0,83,0.00,,,0.09,Wunderground v.1.15,2013-03-09 22:16:00,
2013-03-09 16:22:00,38.9,34.2,29.89,ESE,105,7.0,7.0,83,0.00,,,0.09,Wunderground v.1.15,2013-03-09 22:22:00,
2013-03-09 16:28:00,38.8,34.1,29.89,SE,135,7.0,7.0,83,0.00,,,0.09,Wunderground v.1.15,2013-03-09 22:28:00,
2013-03-09 16:34:00,38.9,34.2,29.89,SE,145,6.0,8.0,83,0.00,,,0.09,Wunderground v.1.15,2013-03-09 22:34:00,
2013-03-09 16:40:00,39.1,34.4,29.89,SSE,153,7.0,9.0,83,0.00,,,0.09,Wunderground v.1.15,2013-03-09 22:40:00,
2013-03-09 16:46:00,39.1,34.1,29.89,SE,128,6.0,8.0,82,0.00,,,0.09,Wunderground v.1.15,2013-03-09 22:46:00,
2013-03-09 16:52:00,39.1,34.1,29.89,ESE,120,6.0,6.0,82,0.00,,,0.09,Wunderground v.1.15,2013-03-09 22:52:00,
2013-03-09 16:58:00,39.2,34.2,29.88,East,100,6.0,9.0,82,0.00,,,0.09,Wunderground v.1.15,2013-03-09 22:58:00,
2013-03-09 17:04:00,39.3,34.6,29.88,SE,144,6.0,6.0,83,0.00,,,0.09,Wunderground v.1.15,2013-03-09 23:04:00,
2013-03-09 17:10:00,39.5,34.5,29.88,ESE,116,6.0,10.0,82,0.00,,,0.09,Wunderground v.1.15,2013-03-09 23:10:00,
2013-03-09 17:16:00,39.7,34.7,29.88,SSE,155,6.0,7.0,82,0.00,,,0.09,Wunderground v.1.15,2013-03-09 23:16:00,
2013-03-09 17:22:00,40.0,34.9,29.88,SE,138,6.0,6.0,82,0.00,,,0.09,Wunderground v.1.15,2013-03-09 23:22:00,
2013-03-09 17:28:00,39.9,34.5,29.88,SSE,161,7.0,7.0,81,0.00,,,0.09,Wunderground v.1.15,2013-03-09 23:28:00,
2013-03-09 17:34:00,39.7,34.7,29.88,SE,138,6.0,8.0,82,0.00,,,0.09,Wunderground v.1.15,2013-03-09 23:34:00,
2013-03-09 17:40:00,39.7,34.7,29.88,SE,140,6.0,10.0,82,0.00,,,0.09,Wunderground v.1.15,2013-03-09 23:40:00,
2013-03-09 17:46:00,39.7,34.7,29.88,SE,134,6.0,6.0,82,0.00,,,0.09,Wunderground v.1.15,2013-03-09 23:46:00,
2013-03-09 17:52:00,39.6,34.6,29.88,SE,146,6.0,6.0,82,0.00,,,0.09,Wunderground v.1.15,2013-03-09 23:52:00,
2013-03-09 17:58:00,39.6,34.9,29.88,SE,130,5.0,8.0,83,0.00,,,0.09,Wunderground v.1.15,2013-03-09 23:58:00,
2013-03-09 18:04:00,39.7,35.0,29.88,SE,138,5.0,7.0,83,0.00,,,0.09,Wunderground v.1.15,2013-03-10 00:04:00,
2013-03-09 18:10:00,39.7,35.0,29.88,SE,126,6.0,7.0,83,0.00,,,0.09,Wunderground v.1.15,2013-03-10 00:10:00,
2013-03-09 18:16:00,39.9,35.2,29.87,SE,128,6.0,12.0,83,0.00,,,0.09,Wunderground v.1.15,2013-03-10 00:16:00,
2013-03-09 18:22:00,40.0,34.9,29.87,SE,146,6.0,6.0,82,0.00,,,0.09,Wunderground v.1.15,2013-03-10 00:22:00,
2013-03-09 18:28:00,40.0,34.9,29.87,SE,131,6.0,7.0,82,0.00,,,0.09,Wunderground v.1.15,2013-03-10 00:28:00,
2013-03-09 18:34:00,40.0,34.9,29.86,SE,137,6.0,6.0,82,0.00,,,0.09,Wunderground v.1.15,2013-03-10 00:34:00,
2013-03-09 18:40:00,40.2,35.1,29.86,SE,140,7.0,8.0,82,0.00,,,0.09,Wunderground v.1.15,2013-03-10 00:40:00,
2013-03-09 18:46:00,40.0,34.9,29.86,SSE,166,7.0,8.0,82,0.00,,,0.09,Wunderground v.1.15,2013-03-10 00:46:00,
2013-03-09 18:52:00,40.0,35.3,29.87,SE,142,6.0,6.0,83,0.00,,,0.09,Wunderground v.1.15,2013-03-10 00:52:00,
2013-03-09 18:58:00,39.9,35.2,29.87,South,175,6.0,7.0,83,0.00,,,0.09,Wunderground v.1.15,2013-03-10 00:58:00,
2013-03-09 19:04:00,39.9,35.2,29.86,SE,139,6.0,7.0,83,0.00,,,0.09,Wunderground v.1.15,2013-03-10 01:04:00,
2013-03-09 19:10:00,39.9,35.2,29.86,SE,146,6.0,8.0,83,0.00,,,0.09,Wunderground v.1.15,2013-03-10 01:10:00,
2013-03-09 19:16:00,39.9,35.2,29.86,SSE,163,6.0,7.0,83,0.00,,,0.09,Wunderground v.1.15,2013-03-10 01:16:00,
2013-03-09 19:22:00,39.8,35.1,29.86,SE,134,5.0,7.0,83,0.00,,,0.09,Wunderground v.1.15,2013-03-10 01:22:00,
2013-03-09 19:28:00,39.8,35.1,29.86,SSE,161,4.0,7.0,83,0.00,,,0.09,Wunderground v.1.15,2013-03-10 01:28:00,
2013-03-09 19:34:00,39.8,35.1,29.86,SSE,153,4.0,5.0,83,0.00,,,0.09,Wunderground v.1.15,2013-03-10 01:34:00,
2013-03-09 19:40:00,39.9,35.5,29.85,SSE,164,5.0,9.0,84,0.00,,,0.09,Wunderground v.1.15,2013-03-10 01:40:00,
2013-03-09 19:45:00,40.1,35.4,29.85,SE,138,5.0,6.0,83,0.00,,,0.09,Wunderground v.1.15,2013-03-10 01:45:00,
2013-03-09 19:52:00,40.0,34.9,29.85,SSE,165,4.0,9.0,82,0.00,,,0.09,Wunderground v.1.15,2013-03-10 01:52:00,
2013-03-09 19:58:00,39.9,35.2,29.85,SE,146,4.0,9.0,83,0.00,,,0.09,Wunderground v.1.15,2013-03-10 01:58:00,
2013-03-09 20:04:00,39.8,35.1,29.85,SSE,157,5.0,6.0,83,0.00,,,0.09,Wunderground v.1.15,2013-03-10 02:04:00,
2013-03-09 20:10:00,40.0,35.3,29.84,South,170,5.0,5.0,83,0.00,,,0.09,Wunderground v.1.15,2013-03-10 02:10:00,
2013-03-09 20:16:00,40.4,35.3,29.85,South,171,5.0,8.0,82,0.00,,,0.09,Wunderground v.1.15,2013-03-10 02:16:00,
2013-03-09 20:21:00,40.6,35.5,29.85,South,182,6.0,6.0,82,0.00,,,0.09,Wunderground v.1.15,2013-03-10 02:21:00,
2013-03-09 20:28:00,40.9,35.5,29.85,SSE,159,6.0,9.0,81,0.00,,,0.09,Wunderground v.1.15,2013-03-10 02:28:00,
2013-03-09 20:34:00,41.2,35.5,29.85,SSE,158,6.0,6.0,80,0.00,,,0.09,Wunderground v.1.15,2013-03-10 02:34:00,
2013-03-09 20:40:00,41.2,35.5,29.85,SSE,149,6.0,6.0,80,0.00,,,0.09,Wunderground v.1.15,2013-03-10 02:40:00,
2013-03-09 20:46:00,41.3,35.6,29.85,SSE,157,6.0,8.0,80,0.00,,,0.09,Wunderground v.1.15,2013-03-10 02:46:00,
2013-03-09 20:52:00,41.4,35.7,29.85,SSE,163,5.0,6.0,80,0.00,,,0.09,Wunderground v.1.15,2013-03-10 02:52:00,
2013-03-09 20:58:00,41.6,35.6,29.85,South,178,5.0,7.0,79,0.00,,,0.09,Wunderground v.1.15,2013-03-10 02:58:00,
2013-03-09 21:04:00,41.7,35.7,29.85,South,174,6.0,8.0,79,0.00,,,0.09,Wunderground v.1.15,2013-03-10 03:04:00,
2013-03-09 21:10:00,41.9,35.9,29.85,South,179,6.0,8.0,79,0.00,,,0.09,Wunderground v.1.15,2013-03-10 03:10:00,
2013-03-09 21:16:00,41.8,35.4,29.85,South,169,5.0,6.0,78,0.00,,,0.09,Wunderground v.1.15,2013-03-10 03:16:00,
2013-03-09 21:22:00,41.6,35.6,29.85,South,170,4.0,5.0,79,0.00,,,0.09,Wunderground v.1.15,2013-03-10 03:22:00,
2013-03-09 21:28:00,41.4,35.4,29.85,South,177,3.0,5.0,79,0.00,,,0.09,Wunderground v.1.15,2013-03-10 03:28:00,
2013-03-09 21:34:00,41.3,35.3,29.86,SW,215,2.0,2.0,79,0.00,,,0.09,Wunderground v.1.15,2013-03-10 03:34:00,
2013-03-09 21:40:00,41.0,35.3,29.86,SW,217,2.0,2.0,80,0.00,,,0.09,Wunderground v.1.15,2013-03-10 03:40:00,
2013-03-09 21:46:00,41.0,35.3,29.86,SW,217,2.0,2.0,80,0.00,,,0.09,Wunderground v.1.15,2013-03-10 03:46:00,
2013-03-09 21:52:00,40.9,35.2,29.85,SW,215,1.0,1.0,80,0.00,,,0.09,Wunderground v.1.15,2013-03-10 03:52:00,
2013-03-09 21:58:00,40.9,35.2,29.85,South,178,0.0,3.0,80,0.00,,,0.09,Wunderground v.1.15,2013-03-10 03:58:00,
2013-03-09 22:04:00,40.9,35.2,29.85,SSE,153,2.0,3.0,80,0.00,,,0.09,Wunderground v.1.15,2013-03-10 04:04:00,
2013-03-09 22:10:00,40.5,34.8,29.85,SSE,153,2.0,2.0,80,0.00,,,0.09,Wunderground v.1.15,2013-03-10 04:10:00,
2013-03-09 22:16:00,40.4,34.7,29.85,SSE,154,1.0,2.0,80,0.00,,,0.09,Wunderground v.1.15,2013-03-10 04:16:00,
2013-03-09 22:22:00,40.1,34.7,29.84,SSE,154,0.0,2.0,81,0.00,,,0.09,Wunderground v.1.15,2013-03-10 04:22:00,
2013-03-09 22:28:00,39.9,34.5,29.84,SSE,154,0.0,2.0,81,0.00,,,0.09,Wunderground v.1.15,2013-03-10 04:28:00,
2013-03-09 22:34:00,39.8,34.8,29.84,SSE,154,0.0,1.0,82,0.00,,,0.09,Wunderground v.1.15,2013-03-10 04:34:00,
2013-03-09 22:40:00,39.8,34.8,29.83,SSE,154,0.0,0.0,82,0.00,,,0.09,Wunderground v.1.15,2013-03-10 04:40:00,
2013-03-09 22:46:00,40.0,34.9,29.84,SSE,154,0.0,0.0,82,0.00,,,0.09,Wunderground v.1.15,2013-03-10 04:46:00,
2013-03-09 22:52:00,40.5,35.4,29.84,SSE,154,0.0,0.0,82,0.00,,,0.09,Wunderground v.1.15,2013-03-10 04:52:00,
2013-03-09 22:58:00,40.7,35.3,29.83,SSE,153,0.0,1.0,81,0.00,,,0.09,Wunderground v.1.15,2013-03-10 04:58:00,
2013-03-09 23:00:00,40.9,35.5,29.83,SSE,154,1.0,3.0,81,0.00,,,0.09,Wunderground v.1.15,2013-03-10 05:00:00,
2013-03-09 23:02:00,41.0,35.6,29.83,SSE,154,1.0,3.0,81,0.00,,,0.09,Wunderground v.1.15,2013-03-10 05:02:00,
2013-03-09 23:04:00,41.1,35.4,29.83,SSE,154,1.0,3.0,80,0.00,,,0.09,Wunderground v.1.15,2013-03-10 05:04:00,
2013-03-09 23:06:00,41.4,35.7,29.83,ESE,115,2.0,3.0,80,0.00,,,0.09,Wunderground v.1.15,2013-03-10 05:06:00,
2013-03-09 23:12:00,41.1,35.1,29.82,ESE,115,3.0,3.0,79,0.00,,,0.09,Wunderground v.1.15,2013-03-10 05:12:00,
2013-03-09 23:18:00,41.1,35.4,29.82,ESE,115,2.0,3.0,80,0.00,,,0.09,Wunderground v.1.15,2013-03-10 05:18:00,
2013-03-09 23:24:00,41.4,35.7,29.82,ESE,122,2.0,3.0,80,0.00,,,0.09,Wunderground v.1.15,2013-03-10 05:24:00,
2013-03-09 23:30:00,41.4,35.4,29.82,SE,132,3.0,3.0,79,0.00,,,0.09,Wunderground v.1.15,2013-03-10 05:30:00,
2013-03-09 23:36:00,41.0,35.3,29.81,SSE,153,3.0,4.0,80,0.00,,,0.09,Wunderground v.1.15,2013-03-10 05:36:00,
2013-03-09 23:42:00,40.8,35.4,29.81,SE,137,3.0,3.0,81,0.00,,,0.09,Wunderground v.1.15,2013-03-10 05:42:00,
2013-03-09 23:48:00,40.5,35.4,29.82,SSE,152,2.0,3.0,82,0.00,,,0.09,Wunderground v.1.15,2013-03-10 05:48:00,
2013-03-09 23:54:00,39.8,34.8,29.84,SSE,152,1.0,2.0,82,0.00,,,0.09,Wunderground v.1.15,2013-03-10 05:54:00,